Location: Chillicothe
(39.7950°N, 93.5520°W)
Time: 03:01:35
(UTC-05:00)

Altair - Visible Passes

Search period start: 23 October 2019 00:00
Search period end: 02 November 2019 00:00
Orbit: 1501 x 1682 km, 47.2° (Epoch: 22 October)

Date Brightness Start Highest point End Pass type
(mag) Time Alt. Az. Time Alt. Az. Time Alt. Az.
23 Oct 10.1 20:29:46 10° WSW 20:32:11 11° WSW 20:34:36 10° SW visible
24 Oct 10.0 20:03:11 10° W 20:07:09 13° WSW 20:11:08 10° SW visible
25 Oct 10.0 19:37:07 10° W 19:42:06 15° WSW 19:47:08 10° SSW visible
26 Oct 10.0 19:11:18 10° W 19:17:03 17° WSW 19:22:52 10° SSW visible
27 Oct 10.0 18:45:38 10° W 18:52:00 19° SW 18:58:28 10° SSW visible
30 Oct 9.7 07:06:32 10° S 07:13:04 22° SE 07:19:43 10° E visible
31 Oct 9.8 06:42:01 10° SSE 06:48:03 20° SE 06:54:10 10° E visible
01 Nov 9.8 06:17:35 10° SSE 06:23:02 17° SE 06:28:32 10° E visible
